Time,TemperatureF,DewpointF,PressureIn,WindDirection,WindDirectionDegrees,WindSpeedMPH,WindSpeedGustMPH,Humidity,HourlyPrecipIn,Conditions,Clouds,dailyrainin,SolarRadiationWatts/m^2,SoftwareType,DateUTC
2013-05-12 00:03:00,71.8,32.0,30.17,ENE,74,3.0,7.0,23,0.00,,,0.00,0.0,meteohub,2013-05-12 07:03:00,
2013-05-12 00:08:00,71.6,31.8,30.17,ENE,73,3.0,7.0,23,0.00,,,0.00,0.0,meteohub,2013-05-12 07:08:00,
2013-05-12 00:13:00,71.8,32.0,30.17,ENE,68,2.0,7.0,23,0.00,,,0.00,0.0,meteohub,2013-05-12 07:13:00,
2013-05-12 00:19:00,71.8,33.1,30.17,ENE,71,3.0,9.0,24,0.00,,,0.00,0.0,meteohub,2013-05-12 07:19:00,
2013-05-12 00:24:00,71.6,32.9,30.17,ENE,76,2.0,9.0,24,0.00,,,0.00,0.0,meteohub,2013-05-12 07:24:00,
2013-05-12 00:29:00,71.4,32.7,30.17,ENE,57,3.0,9.0,24,0.00,,,0.00,0.0,meteohub,2013-05-12 07:29:00,
2013-05-12 00:34:00,71.2,32.5,30.17,ENE,68,4.0,7.0,24,0.00,,,0.00,0.0,meteohub,2013-05-12 07:34:00,
2013-05-12 00:39:00,71.2,32.5,30.17,ENE,63,2.0,7.0,24,0.00,,,0.00,0.0,meteohub,2013-05-12 07:39:00,
2013-05-12 00:44:00,71.1,33.4,30.17,East,81,2.0,7.0,25,0.00,,,0.00,0.0,meteohub,2013-05-12 07:44:00,
2013-05-12 00:49:00,71.1,33.4,30.17,East,97,1.0,6.0,25,0.00,,,0.00,0.0,meteohub,2013-05-12 07:49:00,
2013-05-12 00:54:00,70.9,33.3,30.17,ENE,59,4.0,7.0,25,0.00,,,0.00,0.0,meteohub,2013-05-12 07:54:00,
2013-05-12 00:59:00,70.9,33.3,30.17,East,86,3.0,7.0,25,0.00,,,0.00,0.0,meteohub,2013-05-12 07:59:00,
2013-05-12 01:04:00,70.9,33.3,30.16,ENE,65,5.0,7.0,25,0.00,,,0.00,0.0,meteohub,2013-05-12 08:04:00,
2013-05-12 01:09:00,70.9,33.3,30.17,ENE,64,3.0,6.0,25,0.00,,,0.00,0.0,meteohub,2013-05-12 08:09:00,
2013-05-12 01:14:00,70.7,33.1,30.17,ENE,71,2.0,7.0,25,0.00,,,0.00,0.0,meteohub,2013-05-12 08:14:00,
2013-05-12 01:19:00,70.5,34.0,30.17,East,84,7.0,7.0,26,0.00,,,0.00,0.0,meteohub,2013-05-12 08:19:00,
2013-05-12 01:24:00,70.5,34.0,30.16,ENE,74,2.0,7.0,26,0.00,,,0.00,0.0,meteohub,2013-05-12 08:24:00,
2013-05-12 01:29:00,70.5,34.0,30.16,ENE,74,2.0,7.0,26,0.00,,,0.00,0.0,meteohub,2013-05-12 08:29:00,
2013-05-12 01:34:00,70.3,33.8,30.16,ENE,61,2.0,7.0,26,0.00,,,0.00,0.0,meteohub,2013-05-12 08:34:00,
2013-05-12 01:39:00,70.2,33.6,30.16,ENE,65,4.0,7.0,26,0.00,,,0.00,0.0,meteohub,2013-05-12 08:39:00,
2013-05-12 01:44:00,70.2,33.6,30.16,ENE,74,3.0,7.0,26,0.00,,,0.00,0.0,meteohub,2013-05-12 08:44:00,
2013-05-12 01:49:00,70.0,34.5,30.16,East,101,3.0,7.0,27,0.00,,,0.00,0.0,meteohub,2013-05-12 08:49:00,
2013-05-12 01:54:00,69.8,34.3,30.16,ENE,61,1.0,7.0,27,0.00,,,0.00,0.0,meteohub,2013-05-12 08:54:00,
2013-05-12 01:59:00,69.6,34.2,30.16,ENE,57,2.0,7.0,27,0.00,,,0.00,0.0,meteohub,2013-05-12 08:59:00,
2013-05-12 02:05:00,69.4,34.0,30.16,East,89,5.0,5.0,27,0.00,,,0.00,0.0,meteohub,2013-05-12 09:05:00,
2013-05-12 02:10:00,69.3,33.8,30.16,ENE,75,3.0,5.0,27,0.00,,,0.00,0.0,meteohub,2013-05-12 09:10:00,
2013-05-12 02:15:00,69.3,33.8,30.16,ENE,67,1.0,5.0,27,0.00,,,0.00,0.0,meteohub,2013-05-12 09:15:00,
2013-05-12 02:20:00,69.3,34.7,30.16,East,87,2.0,5.0,28,0.00,,,0.00,0.0,meteohub,2013-05-12 09:20:00,
2013-05-12 02:25:00,69.3,34.7,30.17,NE,55,4.0,5.0,28,0.00,,,0.00,0.0,meteohub,2013-05-12 09:25:00,
2013-05-12 02:30:00,69.4,34.0,30.17,ENE,63,2.0,5.0,27,0.00,,,0.00,0.0,meteohub,2013-05-12 09:30:00,
2013-05-12 02:35:00,69.4,34.9,30.17,ENE,61,1.0,8.0,28,0.00,,,0.00,0.0,meteohub,2013-05-12 09:35:00,
2013-05-12 02:40:00,69.3,34.7,30.17,ENE,72,2.0,8.0,28,0.00,,,0.00,0.0,meteohub,2013-05-12 09:40:00,
2013-05-12 02:45:00,69.1,34.5,30.17,ENE,64,2.0,8.0,28,0.00,,,0.00,0.0,meteohub,2013-05-12 09:45:00,
2013-05-12 02:50:00,69.1,34.5,30.17,East,80,5.0,6.0,28,0.00,,,0.00,0.0,meteohub,2013-05-12 09:50:00,
2013-05-12 02:55:00,68.9,34.5,30.17,ENE,77,3.0,7.0,28,0.00,,,0.00,0.0,meteohub,2013-05-12 09:55:00,
2013-05-12 03:00:00,68.9,34.5,30.17,ENE,69,3.0,7.0,28,0.00,,,0.00,0.0,meteohub,2013-05-12 10:00:00,
2013-05-12 03:05:00,68.7,34.3,30.17,East,79,5.0,7.0,28,0.00,,,0.00,0.0,meteohub,2013-05-12 10:05:00,
2013-05-12 03:10:00,68.5,35.1,30.17,ENE,66,1.0,7.0,29,0.00,,,0.00,0.0,meteohub,2013-05-12 10:10:00,
2013-05-12 03:15:00,68.5,35.1,30.17,ENE,67,2.0,7.0,29,0.00,,,0.00,0.0,meteohub,2013-05-12 10:15:00,
2013-05-12 03:20:00,68.5,35.1,30.17,ESE,105,4.0,5.0,29,0.00,,,0.00,0.0,meteohub,2013-05-12 10:20:00,
2013-05-12 03:25:00,68.5,35.1,30.17,ENE,68,5.0,8.0,29,0.00,,,0.00,0.0,meteohub,2013-05-12 10:25:00,
2013-05-12 03:30:00,69.3,34.7,30.17,ENE,67,8.0,9.0,28,0.00,,,0.00,0.0,meteohub,2013-05-12 10:30:00,
2013-05-12 03:35:00,70.2,34.7,30.17,ENE,67,3.0,9.0,27,0.00,,,0.00,0.0,meteohub,2013-05-12 10:35:00,
2013-05-12 03:40:00,70.3,34.7,30.17,ENE,62,2.0,9.0,27,0.00,,,0.00,0.0,meteohub,2013-05-12 10:40:00,
2013-05-12 03:45:00,70.3,34.7,30.17,East,98,2.0,8.0,27,0.00,,,0.00,0.0,meteohub,2013-05-12 10:45:00,
2013-05-12 03:51:00,69.8,34.3,30.17,ENE,65,1.0,8.0,27,0.00,,,0.00,0.0,meteohub,2013-05-12 10:51:00,
2013-05-12 03:56:00,69.4,34.9,30.17,ENE,73,2.0,7.0,28,0.00,,,0.00,0.0,meteohub,2013-05-12 10:56:00,
2013-05-12 04:01:00,69.6,35.1,30.17,ENE,71,3.0,8.0,28,0.00,,,0.00,0.0,meteohub,2013-05-12 11:01:00,
2013-05-12 04:06:00,70.2,35.6,30.17,NE,55,6.0,10.0,28,0.00,,,0.00,0.0,meteohub,2013-05-12 11:06:00,
2013-05-12 04:11:00,70.3,35.6,30.17,NE,50,4.0,10.0,28,0.00,,,0.00,0.0,meteohub,2013-05-12 11:11:00,
2013-05-12 04:16:00,70.5,35.8,30.17,ENE,77,7.0,10.0,28,0.00,,,0.00,0.0,meteohub,2013-05-12 11:16:00,
2013-05-12 04:21:00,70.5,35.8,30.18,NE,34,4.0,11.0,28,0.00,,,0.00,0.0,meteohub,2013-05-12 11:21:00,
2013-05-12 04:26:00,70.3,35.6,30.18,ENE,65,4.0,11.0,28,0.00,,,0.00,0.0,meteohub,2013-05-12 11:26:00,
2013-05-12 04:31:00,70.3,35.6,30.18,NE,55,1.0,9.0,28,0.00,,,0.00,0.0,meteohub,2013-05-12 11:31:00,
2013-05-12 04:36:00,70.0,35.4,30.18,ENE,58,3.0,8.0,28,0.00,,,0.00,0.0,meteohub,2013-05-12 11:36:00,
2013-05-12 04:41:00,70.0,36.3,30.18,ENE,75,3.0,10.0,29,0.00,,,0.00,0.0,meteohub,2013-05-12 11:41:00,
2013-05-12 04:46:00,70.0,36.3,30.18,ENE,57,7.0,10.0,29,0.00,,,0.00,0.0,meteohub,2013-05-12 11:46:00,
2013-05-12 04:51:00,70.0,36.3,30.18,ENE,57,3.0,10.0,29,0.00,,,0.00,0.0,meteohub,2013-05-12 11:51:00,
2013-05-12 04:57:00,70.0,36.3,30.18,ENE,61,3.0,10.0,29,0.00,,,0.00,0.0,meteohub,2013-05-12 11:57:00,
2013-05-12 05:02:00,69.8,36.1,30.18,ENE,67,2.0,10.0,29,0.00,,,0.00,0.0,meteohub,2013-05-12 12:02:00,
2013-05-12 05:07:00,69.4,35.8,30.18,East,101,6.0,10.0,29,0.00,,,0.00,0.0,meteohub,2013-05-12 12:07:00,
2013-05-12 05:13:00,68.7,36.0,30.19,ESE,115,4.0,9.0,30,0.00,,,0.00,0.0,meteohub,2013-05-12 12:13:00,
2013-05-12 05:18:00,68.4,35.8,30.19,ENE,63,1.0,7.0,30,0.00,,,0.00,0.0,meteohub,2013-05-12 12:18:00,
2013-05-12 05:23:00,67.8,36.1,30.19,East,101,2.0,7.0,31,0.00,,,0.00,0.0,meteohub,2013-05-12 12:23:00,
2013-05-12 05:28:00,67.6,36.7,30.19,ENE,74,4.0,7.0,32,0.00,,,0.00,5.0,meteohub,2013-05-12 12:28:00,
2013-05-12 05:33:00,68.4,37.4,30.19,East,84,9.0,9.0,32,0.00,,,0.00,9.0,meteohub,2013-05-12 12:33:00,
2013-05-12 05:38:00,68.9,37.0,30.19,ENE,74,2.0,9.0,31,0.00,,,0.00,12.0,meteohub,2013-05-12 12:38:00,
2013-05-12 05:43:00,69.1,37.2,30.19,East,92,1.0,9.0,31,0.00,,,0.00,14.0,meteohub,2013-05-12 12:43:00,
2013-05-12 05:48:00,68.7,36.9,30.19,East,92,1.0,9.0,31,0.00,,,0.00,18.0,meteohub,2013-05-12 12:48:00,
2013-05-12 05:53:00,68.7,36.9,30.19,East,87,2.0,5.0,31,0.00,,,0.00,28.0,meteohub,2013-05-12 12:53:00,
2013-05-12 05:58:00,68.9,37.0,30.19,East,79,2.0,5.0,31,0.00,,,0.00,39.0,meteohub,2013-05-12 12:58:00,
2013-05-12 06:03:00,69.3,37.4,30.20,ENE,65,1.0,11.0,31,0.00,,,0.00,51.0,meteohub,2013-05-12 13:03:00,
2013-05-12 06:08:00,69.3,37.4,30.20,East,83,5.0,11.0,31,0.00,,,0.00,67.0,meteohub,2013-05-12 13:08:00,
2013-05-12 06:13:00,69.3,37.4,30.20,ENE,75,2.0,11.0,31,0.00,,,0.00,83.0,meteohub,2013-05-12 13:13:00,
2013-05-12 06:18:00,69.4,37.4,30.20,East,84,3.0,7.0,31,0.00,,,0.00,102.0,meteohub,2013-05-12 13:18:00,
2013-05-12 06:23:00,69.6,36.9,30.20,ESE,107,7.0,7.0,30,0.00,,,0.00,121.0,meteohub,2013-05-12 13:23:00,
2013-05-12 06:28:00,70.0,37.0,30.20,East,86,2.0,8.0,30,0.00,,,0.00,137.0,meteohub,2013-05-12 13:28:00,
2013-05-12 06:33:00,70.3,37.4,30.20,East,82,1.0,8.0,30,0.00,,,0.00,158.0,meteohub,2013-05-12 13:33:00,
2013-05-12 06:38:00,70.7,36.9,30.20,ENE,65,5.0,8.0,29,0.00,,,0.00,179.0,meteohub,2013-05-12 13:38:00,
2013-05-12 06:43:00,71.4,37.6,30.21,East,82,7.0,11.0,29,0.00,,,0.00,195.0,meteohub,2013-05-12 13:43:00,
2013-05-12 06:48:00,72.0,37.0,30.20,ENE,57,4.0,11.0,28,0.00,,,0.00,213.0,meteohub,2013-05-12 13:48:00,
2013-05-12 06:53:00,72.3,37.4,30.21,East,97,7.0,11.0,28,0.00,,,0.00,230.0,meteohub,2013-05-12 13:53:00,
2013-05-12 06:58:00,72.3,37.4,30.21,East,100,6.0,10.0,28,0.00,,,0.00,248.0,meteohub,2013-05-12 13:58:00,
2013-05-12 07:03:00,72.1,37.2,30.21,East,98,5.0,10.0,28,0.00,,,0.00,262.0,meteohub,2013-05-12 14:03:00,
2013-05-12 07:08:00,72.3,37.4,30.21,East,79,5.0,10.0,28,0.00,,,0.00,285.0,meteohub,2013-05-12 14:08:00,
2013-05-12 07:13:00,72.9,37.8,30.21,ESE,112,5.0,10.0,28,0.00,,,0.00,295.0,meteohub,2013-05-12 14:13:00,
2013-05-12 07:18:00,73.8,37.8,30.21,ESE,103,1.0,10.0,27,0.00,,,0.00,316.0,meteohub,2013-05-12 14:18:00,
2013-05-12 07:23:00,74.1,37.0,30.21,East,80,5.0,10.0,26,0.00,,,0.00,332.0,meteohub,2013-05-12 14:23:00,
2013-05-12 07:28:00,74.5,37.4,30.21,ENE,74,3.0,14.0,26,0.00,,,0.00,353.0,meteohub,2013-05-12 14:28:00,
2013-05-12 07:33:00,74.7,37.6,30.21,ENE,69,3.0,14.0,26,0.00,,,0.00,367.0,meteohub,2013-05-12 14:33:00,
2013-05-12 07:38:00,74.8,37.6,30.21,ENE,76,7.0,14.0,26,0.00,,,0.00,390.0,meteohub,2013-05-12 14:38:00,
2013-05-12 07:43:00,75.0,37.8,30.21,SE,129,7.0,14.0,26,0.00,,,0.00,408.0,meteohub,2013-05-12 14:43:00,
2013-05-12 07:48:00,75.0,37.8,30.21,ENE,74,9.0,14.0,26,0.00,,,0.00,424.0,meteohub,2013-05-12 14:48:00,
2013-05-12 07:53:00,75.4,38.1,30.21,East,98,3.0,13.0,26,0.00,,,0.00,443.0,meteohub,2013-05-12 14:53:00,
2013-05-12 07:58:00,75.6,38.3,30.21,ESE,121,4.0,13.0,26,0.00,,,0.00,461.0,meteohub,2013-05-12 14:58:00,
2013-05-12 08:03:00,75.6,38.3,30.21,ESE,104,7.0,16.0,26,0.00,,,0.00,476.0,meteohub,2013-05-12 15:03:00,
2013-05-12 08:08:00,75.6,38.3,30.21,East,90,8.0,16.0,26,0.00,,,0.00,496.0,meteohub,2013-05-12 15:08:00,
2013-05-12 08:13:00,75.7,38.5,30.21,East,84,6.0,16.0,26,0.00,,,0.00,512.0,meteohub,2013-05-12 15:13:00,
2013-05-12 08:18:00,75.9,37.6,30.21,East,80,6.0,13.0,25,0.00,,,0.00,531.0,meteohub,2013-05-12 15:18:00,
2013-05-12 08:24:00,75.9,38.7,30.21,ESE,117,8.0,17.0,26,0.00,,,0.00,545.0,meteohub,2013-05-12 15:24:00,
2013-05-12 08:29:00,76.5,37.9,30.21,ESE,109,8.0,17.0,25,0.00,,,0.00,561.0,meteohub,2013-05-12 15:29:00,
2013-05-12 08:34:00,76.6,38.1,30.21,ESE,114,4.0,17.0,25,0.00,,,0.00,578.0,meteohub,2013-05-12 15:34:00,
2013-05-12 08:39:00,77.2,38.7,30.21,ENE,59,10.0,14.0,25,0.00,,,0.00,592.0,meteohub,2013-05-12 15:39:00,
2013-05-12 08:44:00,77.5,37.9,30.20,East,98,6.0,14.0,24,0.00,,,0.00,608.0,meteohub,2013-05-12 15:44:00,
2013-05-12 08:49:00,77.9,38.1,30.20,NE,49,5.0,13.0,24,0.00,,,0.00,626.0,meteohub,2013-05-12 15:49:00,
2013-05-12 08:54:00,78.6,37.8,30.20,ENE,73,3.0,14.0,23,0.00,,,0.00,643.0,meteohub,2013-05-12 15:54:00,
2013-05-12 08:59:00,79.3,37.2,30.20,ENE,57,10.0,14.0,22,0.00,,,0.00,659.0,meteohub,2013-05-12 15:59:00,
2013-05-12 09:04:00,79.5,37.4,30.20,East,100,9.0,11.0,22,0.00,,,0.00,675.0,meteohub,2013-05-12 16:04:00,
2013-05-12 09:09:00,79.5,37.4,30.19,NE,54,6.0,14.0,22,0.00,,,0.00,689.0,meteohub,2013-05-12 16:09:00,
2013-05-12 09:14:00,79.9,36.5,30.20,NE,54,11.0,15.0,21,0.00,,,0.00,705.0,meteohub,2013-05-12 16:14:00,
2013-05-12 09:19:00,79.9,36.5,30.20,ENE,74,12.0,15.0,21,0.00,,,0.00,719.0,meteohub,2013-05-12 16:19:00,
2013-05-12 09:24:00,80.1,35.4,30.19,East,84,5.0,15.0,20,0.00,,,0.00,733.0,meteohub,2013-05-12 16:24:00,
2013-05-12 09:29:00,80.2,35.6,30.19,ENE,75,9.0,15.0,20,0.00,,,0.00,747.0,meteohub,2013-05-12 16:29:00,
2013-05-12 09:34:00,80.4,34.3,30.19,East,80,9.0,16.0,19,0.00,,,0.00,763.0,meteohub,2013-05-12 16:34:00,
2013-05-12 09:39:00,80.8,36.0,30.19,East,82,11.0,16.0,20,0.00,,,0.00,773.0,meteohub,2013-05-12 16:39:00,
2013-05-12 09:44:00,80.4,34.3,30.20,ENE,72,5.0,16.0,19,0.00,,,0.00,789.0,meteohub,2013-05-12 16:44:00,
2013-05-12 09:49:00,81.0,34.9,30.20,ENE,63,10.0,16.0,19,0.00,,,0.00,802.0,meteohub,2013-05-12 16:49:00,
2013-05-12 09:54:00,81.1,35.1,30.20,East,80,8.0,16.0,19,0.00,,,0.00,812.0,meteohub,2013-05-12 16:54:00,
2013-05-12 09:59:00,81.3,35.1,30.19,ESE,121,11.0,16.0,19,0.00,,,0.00,826.0,meteohub,2013-05-12 16:59:00,
2013-05-12 10:04:00,81.9,35.6,30.19,NE,45,10.0,15.0,19,0.00,,,0.00,840.0,meteohub,2013-05-12 17:04:00,
2013-05-12 10:09:00,82.0,34.3,30.19,NE,51,8.0,15.0,18,0.00,,,0.00,847.0,meteohub,2013-05-12 17:09:00,
2013-05-12 10:14:00,81.9,34.2,30.19,East,94,8.0,20.0,18,0.00,,,0.00,860.0,meteohub,2013-05-12 17:14:00,
2013-05-12 10:19:00,81.9,34.2,30.19,ESE,109,7.0,20.0,18,0.00,,,0.00,868.0,meteohub,2013-05-12 17:19:00,
2013-05-12 10:25:00,81.9,35.6,30.19,ESE,123,7.0,17.0,19,0.00,,,0.00,881.0,meteohub,2013-05-12 17:25:00,
2013-05-12 10:30:00,82.0,34.3,30.19,East,84,6.0,17.0,18,0.00,,,0.00,888.0,meteohub,2013-05-12 17:30:00,
2013-05-12 10:35:00,82.8,34.9,30.18,East,101,9.0,15.0,18,0.00,,,0.00,902.0,meteohub,2013-05-12 17:35:00,
2013-05-12 10:40:00,82.8,33.4,30.18,East,91,8.0,17.0,17,0.00,,,0.00,911.0,meteohub,2013-05-12 17:40:00,
2013-05-12 10:45:00,82.8,34.9,30.18,ESE,102,11.0,17.0,18,0.00,,,0.00,919.0,meteohub,2013-05-12 17:45:00,
2013-05-12 10:50:00,83.3,34.0,30.17,ESE,115,8.0,17.0,17,0.00,,,0.00,928.0,meteohub,2013-05-12 17:50:00,
2013-05-12 10:55:00,83.1,33.8,30.17,ENE,74,4.0,15.0,17,0.00,,,0.00,933.0,meteohub,2013-05-12 17:55:00,
2013-05-12 11:00:00,83.7,34.2,30.17,ENE,76,8.0,15.0,17,0.00,,,0.00,947.0,meteohub,2013-05-12 18:00:00,
2013-05-12 11:05:00,83.7,34.2,30.17,ENE,76,8.0,19.0,17,0.00,,,0.00,954.0,meteohub,2013-05-12 18:05:00,
2013-05-12 11:10:00,84.0,33.1,30.16,East,97,10.0,19.0,16,0.00,,,0.00,963.0,meteohub,2013-05-12 18:10:00,
2013-05-12 11:15:00,84.4,33.3,30.16,ENE,73,5.0,19.0,16,0.00,,,0.00,965.0,meteohub,2013-05-12 18:15:00,
2013-05-12 11:20:00,84.6,33.4,30.17,East,87,6.0,16.0,16,0.00,,,0.00,974.0,meteohub,2013-05-12 18:20:00,
2013-05-12 11:25:00,84.6,33.4,30.16,East,90,9.0,16.0,16,0.00,,,0.00,976.0,meteohub,2013-05-12 18:25:00,
2013-05-12 11:30:00,84.9,32.2,30.16,ESE,116,10.0,16.0,15,0.00,,,0.00,983.0,meteohub,2013-05-12 18:30:00,
2013-05-12 11:35:00,84.9,32.2,30.16,East,96,7.0,16.0,15,0.00,,,0.00,988.0,meteohub,2013-05-12 18:35:00,
2013-05-12 11:40:00,84.9,30.4,30.15,NE,36,6.0,17.0,14,0.00,,,0.00,991.0,meteohub,2013-05-12 18:40:00,
2013-05-12 11:45:00,85.6,30.9,30.15,ENE,69,9.0,17.0,14,0.00,,,0.00,998.0,meteohub,2013-05-12 18:45:00,
2013-05-12 11:50:00,85.6,30.9,30.15,East,100,10.0,17.0,14,0.00,,,0.00,998.0,meteohub,2013-05-12 18:50:00,
2013-05-12 11:55:00,85.5,30.9,30.14,East,84,7.0,18.0,14,0.00,,,0.00,997.0,meteohub,2013-05-12 18:55:00,
2013-05-12 12:00:00,85.8,29.3,30.14,East,80,13.0,18.0,13,0.00,,,0.00,1004.0,meteohub,2013-05-12 19:00:00,
2013-05-12 12:05:00,85.8,31.1,30.14,SE,131,8.0,18.0,14,0.00,,,0.00,1004.0,meteohub,2013-05-12 19:05:00,
2013-05-12 12:10:00,86.2,31.5,30.14,ENE,68,4.0,18.0,14,0.00,,,0.00,1009.0,meteohub,2013-05-12 19:10:00,
2013-05-12 12:15:00,86.4,29.7,30.14,East,90,14.0,15.0,13,0.00,,,0.00,1009.0,meteohub,2013-05-12 19:15:00,
2013-05-12 12:20:00,86.2,31.5,30.14,East,84,8.0,17.0,14,0.00,,,0.00,1007.0,meteohub,2013-05-12 19:20:00,
2013-05-12 12:26:00,86.5,31.6,30.14,ENE,78,4.0,17.0,14,0.00,,,0.00,1005.0,meteohub,2013-05-12 19:26:00,
2013-05-12 12:31:00,86.5,31.6,30.14,ENE,71,4.0,17.0,14,0.00,,,0.00,1004.0,meteohub,2013-05-12 19:31:00,
2013-05-12 12:36:00,86.5,31.6,30.14,East,90,10.0,16.0,14,0.00,,,0.00,1005.0,meteohub,2013-05-12 19:36:00,
2013-05-12 12:41:00,86.5,29.8,30.13,ENE,62,7.0,16.0,13,0.00,,,0.00,1002.0,meteohub,2013-05-12 19:41:00,
2013-05-12 12:46:00,86.9,32.0,30.13,East,97,13.0,16.0,14,0.00,,,0.00,1002.0,meteohub,2013-05-12 19:46:00,
2013-05-12 12:51:00,87.4,30.6,30.13,East,89,8.0,17.0,13,0.00,,,0.00,1000.0,meteohub,2013-05-12 19:51:00,
2013-05-12 12:56:00,87.6,30.7,30.13,East,80,6.0,17.0,13,0.00,,,0.00,998.0,meteohub,2013-05-12 19:56:00,
2013-05-12 13:01:00,87.6,30.7,30.12,ESE,121,10.0,16.0,13,0.00,,,0.00,991.0,meteohub,2013-05-12 20:01:00,
2013-05-12 13:06:00,87.3,30.4,30.12,East,93,11.0,18.0,13,0.00,,,0.00,990.0,meteohub,2013-05-12 20:06:00,
2013-05-12 13:11:00,87.6,30.7,30.11,ESE,117,5.0,18.0,13,0.00,,,0.00,986.0,meteohub,2013-05-12 20:11:00,
2013-05-12 13:16:00,88.0,30.9,30.11,ENE,66,14.0,18.0,13,0.00,,,0.00,986.0,meteohub,2013-05-12 20:16:00,
2013-05-12 13:21:00,87.8,30.9,30.11,ENE,60,2.0,18.0,13,0.00,,,0.00,983.0,meteohub,2013-05-12 20:21:00,
2013-05-12 13:26:00,88.9,31.6,30.10,NNW,340,5.0,18.0,13,0.00,,,0.00,977.0,meteohub,2013-05-12 20:26:00,
2013-05-12 13:31:00,89.8,30.4,30.11,East,87,10.0,18.0,12,0.00,,,0.00,965.0,meteohub,2013-05-12 20:31:00,
2013-05-12 13:36:00,88.5,29.5,30.10,ENE,57,10.0,18.0,12,0.00,,,0.00,960.0,meteohub,2013-05-12 20:36:00,
2013-05-12 13:41:00,88.3,29.3,30.10,NNE,30,6.0,18.0,12,0.00,,,0.00,960.0,meteohub,2013-05-12 20:41:00,
2013-05-12 13:46:00,89.1,29.8,30.09,ENE,69,7.0,18.0,12,0.00,,,0.00,958.0,meteohub,2013-05-12 20:46:00,
2013-05-12 13:51:00,89.6,28.2,30.09,ESE,118,10.0,12.0,11,0.00,,,0.00,954.0,meteohub,2013-05-12 20:51:00,
2013-05-12 13:56:00,89.1,27.7,30.09,East,81,7.0,15.0,11,0.00,,,0.00,947.0,meteohub,2013-05-12 20:56:00,
2013-05-12 14:01:00,88.7,27.5,30.09,NE,50,5.0,15.0,11,0.00,,,0.00,577.0,meteohub,2013-05-12 21:01:00,
2013-05-12 14:06:00,88.5,27.3,30.09,ENE,78,4.0,15.0,11,0.00,,,0.00,647.0,meteohub,2013-05-12 21:06:00,
2013-05-12 14:11:00,88.7,29.7,30.09,ENE,67,7.0,15.0,12,0.00,,,0.00,647.0,meteohub,2013-05-12 21:11:00,
2013-05-12 14:16:00,89.1,29.8,30.09,NNE,27,7.0,13.0,12,0.00,,,0.00,670.0,meteohub,2013-05-12 21:16:00,
2013-05-12 14:22:00,89.1,27.7,30.08,ESE,107,8.0,15.0,11,0.00,,,0.00,1034.0,meteohub,2013-05-12 21:22:00,
2013-05-12 14:27:00,88.2,29.1,30.08,SE,126,3.0,15.0,12,0.00,,,0.00,302.0,meteohub,2013-05-12 21:27:00,
2013-05-12 14:32:00,88.0,28.9,30.08,East,85,7.0,15.0,12,0.00,,,0.00,355.0,meteohub,2013-05-12 21:32:00,
2013-05-12 14:37:00,87.8,26.8,30.08,East,80,2.0,14.0,11,0.00,,,0.00,367.0,meteohub,2013-05-12 21:37:00,
2013-05-12 14:42:00,88.2,27.0,30.07,NE,49,8.0,16.0,11,0.00,,,0.00,893.0,meteohub,2013-05-12 21:42:00,
2013-05-12 14:47:00,89.1,27.7,30.07,ENE,75,13.0,17.0,11,0.00,,,0.00,909.0,meteohub,2013-05-12 21:47:00,
2013-05-12 14:52:00,89.1,25.3,30.07,ENE,76,4.0,17.0,10,0.00,,,0.00,888.0,meteohub,2013-05-12 21:52:00,
2013-05-12 14:57:00,89.4,25.7,30.06,ESE,108,7.0,17.0,10,0.00,,,0.00,856.0,meteohub,2013-05-12 21:57:00,
2013-05-12 15:02:00,89.8,25.9,30.06,NE,48,7.0,18.0,10,0.00,,,0.00,831.0,meteohub,2013-05-12 22:02:00,
2013-05-12 15:07:00,90.0,26.1,30.06,ESE,109,7.0,18.0,10,0.00,,,0.00,816.0,meteohub,2013-05-12 22:07:00,
2013-05-12 15:12:00,89.8,25.9,30.06,NNE,24,6.0,18.0,10,0.00,,,0.00,800.0,meteohub,2013-05-12 22:12:00,
2013-05-12 15:17:00,90.0,26.1,30.06,ESE,106,4.0,15.0,10,0.00,,,0.00,780.0,meteohub,2013-05-12 22:17:00,
2013-05-12 15:22:00,90.3,26.4,30.05,East,82,6.0,15.0,10,0.00,,,0.00,761.0,meteohub,2013-05-12 22:22:00,
2013-05-12 15:27:00,90.3,26.4,30.06,NE,53,3.0,15.0,10,0.00,,,0.00,745.0,meteohub,2013-05-12 22:27:00,
2013-05-12 15:32:00,90.0,26.1,30.05,NE,44,6.0,15.0,10,0.00,,,0.00,726.0,meteohub,2013-05-12 22:32:00,
2013-05-12 15:37:00,89.6,25.9,30.05,East,96,6.0,15.0,10,0.00,,,0.00,717.0,meteohub,2013-05-12 22:37:00,
2013-05-12 15:42:00,89.6,25.9,30.05,East,80,7.0,17.0,10,0.00,,,0.00,693.0,meteohub,2013-05-12 22:42:00,
2013-05-12 15:47:00,89.8,23.4,30.05,ENE,72,9.0,17.0,9,0.00,,,0.00,686.0,meteohub,2013-05-12 22:47:00,
2013-05-12 15:52:00,90.0,26.1,30.05,ENE,74,5.0,17.0,10,0.00,,,0.00,670.0,meteohub,2013-05-12 22:52:00,
2013-05-12 15:57:00,90.1,26.2,30.04,NE,35,6.0,16.0,10,0.00,,,0.00,647.0,meteohub,2013-05-12 22:57:00,
2013-05-12 16:02:00,90.3,26.4,30.04,NE,53,9.0,16.0,10,0.00,,,0.00,629.0,meteohub,2013-05-12 23:02:00,
2013-05-12 16:07:00,90.5,26.6,30.04,North,5,6.0,14.0,10,0.00,,,0.00,612.0,meteohub,2013-05-12 23:07:00,
2013-05-12 16:12:00,90.7,26.6,30.04,East,84,6.0,14.0,10,0.00,,,0.00,601.0,meteohub,2013-05-12 23:12:00,
2013-05-12 16:17:00,90.7,24.1,30.04,ENE,65,4.0,14.0,9,0.00,,,0.00,592.0,meteohub,2013-05-12 23:17:00,
2013-05-12 16:22:00,90.1,23.7,30.04,ESE,103,4.0,19.0,9,0.00,,,0.00,570.0,meteohub,2013-05-12 23:22:00,
2013-05-12 16:27:00,89.4,23.2,30.04,SE,133,4.0,19.0,9,0.00,,,0.00,557.0,meteohub,2013-05-12 23:27:00,
2013-05-12 16:32:00,89.1,25.3,30.03,ESE,121,3.0,19.0,10,0.00,,,0.00,533.0,meteohub,2013-05-12 23:32:00,
2013-05-12 16:37:00,89.4,25.7,30.03,NE,54,6.0,14.0,10,0.00,,,0.00,519.0,meteohub,2013-05-12 23:37:00,
2013-05-12 16:42:00,89.6,25.9,30.03,ESE,111,7.0,15.0,10,0.00,,,0.00,508.0,meteohub,2013-05-12 23:42:00,
2013-05-12 16:47:00,89.4,25.7,30.03,East,92,3.0,15.0,10,0.00,,,0.00,466.0,meteohub,2013-05-12 23:47:00,
2013-05-12 16:52:00,89.4,25.7,30.03,ENE,63,4.0,15.0,10,0.00,,,0.00,459.0,meteohub,2013-05-12 23:52:00,
2013-05-12 16:57:00,89.6,25.9,30.03,East,80,5.0,16.0,10,0.00,,,0.00,276.0,meteohub,2013-05-12 23:57:00,
2013-05-12 17:02:00,89.4,25.7,30.03,East,88,7.0,16.0,10,0.00,,,0.00,432.0,meteohub,2013-05-13 00:02:00,
2013-05-12 17:07:00,89.4,25.7,30.03,East,93,5.0,16.0,10,0.00,,,0.00,410.0,meteohub,2013-05-13 00:07:00,
2013-05-12 17:12:00,89.2,27.9,30.03,NE,48,9.0,12.0,11,0.00,,,0.00,383.0,meteohub,2013-05-13 00:12:00,
2013-05-12 17:17:00,89.2,25.5,30.03,East,96,9.0,11.0,10,0.00,,,0.00,364.0,meteohub,2013-05-13 00:17:00,
2013-05-12 17:22:00,88.9,25.3,30.03,ESE,118,5.0,13.0,10,0.00,,,0.00,346.0,meteohub,2013-05-13 00:22:00,
2013-05-12 17:27:00,89.1,27.7,30.03,East,85,2.0,13.0,11,0.00,,,0.00,329.0,meteohub,2013-05-13 00:27:00,
2013-05-12 17:32:00,88.9,27.5,30.03,ENE,61,7.0,13.0,11,0.00,,,0.00,315.0,meteohub,2013-05-13 00:32:00,
2013-05-12 17:37:00,88.9,27.5,30.03,NE,36,4.0,11.0,11,0.00,,,0.00,287.0,meteohub,2013-05-13 00:37:00,
2013-05-12 17:42:00,88.3,27.1,30.03,ENE,61,5.0,13.0,11,0.00,,,0.00,272.0,meteohub,2013-05-13 00:42:00,
2013-05-12 17:47:00,88.2,27.0,30.03,East,97,2.0,13.0,11,0.00,,,0.00,257.0,meteohub,2013-05-13 00:47:00,
2013-05-12 17:52:00,88.2,27.0,30.02,NNE,27,4.0,13.0,11,0.00,,,0.00,237.0,meteohub,2013-05-13 00:52:00,
2013-05-12 17:57:00,88.0,27.0,30.02,ENE,72,4.0,13.0,11,0.00,,,0.00,213.0,meteohub,2013-05-13 00:57:00,
2013-05-12 18:02:00,87.8,26.8,30.02,East,88,6.0,8.0,11,0.00,,,0.00,199.0,meteohub,2013-05-13 01:02:00,
2013-05-12 18:07:00,87.4,28.6,30.02,ENE,75,5.0,9.0,12,0.00,,,0.00,93.0,meteohub,2013-05-13 01:07:00,
2013-05-12 18:12:00,87.1,28.4,30.02,ENE,77,3.0,10.0,12,0.00,,,0.00,97.0,meteohub,2013-05-13 01:12:00,
2013-05-12 18:17:00,86.5,27.9,30.02,East,82,5.0,12.0,12,0.00,,,0.00,76.0,meteohub,2013-05-13 01:17:00,
2013-05-12 18:22:00,86.4,27.7,30.02,ENE,78,4.0,12.0,12,0.00,,,0.00,42.0,meteohub,2013-05-13 01:22:00,
2013-05-12 18:27:00,86.2,27.7,30.02,East,100,5.0,12.0,12,0.00,,,0.00,33.0,meteohub,2013-05-13 01:27:00,
2013-05-12 18:32:00,85.8,27.3,30.03,East,96,5.0,11.0,12,0.00,,,0.00,30.0,meteohub,2013-05-13 01:32:00,
2013-05-12 18:37:00,85.6,29.1,30.03,East,85,3.0,8.0,13,0.00,,,0.00,32.0,meteohub,2013-05-13 01:37:00,
2013-05-12 18:42:00,85.3,28.9,30.03,ESE,107,2.0,8.0,13,0.00,,,0.00,25.0,meteohub,2013-05-13 01:42:00,
2013-05-12 18:47:00,84.9,28.6,30.03,NE,44,2.0,8.0,13,0.00,,,0.00,21.0,meteohub,2013-05-13 01:47:00,
2013-05-12 18:52:00,84.7,28.4,30.03,ENE,63,4.0,7.0,13,0.00,,,0.00,19.0,meteohub,2013-05-13 01:52:00,
2013-05-12 18:57:00,84.6,28.4,30.03,East,93,6.0,8.0,13,0.00,,,0.00,16.0,meteohub,2013-05-13 01:57:00,
2013-05-12 19:02:00,84.2,28.0,30.04,ENE,61,5.0,10.0,13,0.00,,,0.00,12.0,meteohub,2013-05-13 02:02:00,
2013-05-12 19:07:00,83.8,29.5,30.04,East,90,2.0,10.0,14,0.00,,,0.00,9.0,meteohub,2013-05-13 02:07:00,
2013-05-12 19:12:00,83.7,29.5,30.04,East,81,6.0,10.0,14,0.00,,,0.00,5.0,meteohub,2013-05-13 02:12:00,
2013-05-12 19:17:00,83.5,29.3,30.04,East,96,5.0,9.0,14,0.00,,,0.00,0.0,meteohub,2013-05-13 02:17:00,
2013-05-12 19:22:00,83.5,29.3,30.04,East,85,3.0,9.0,14,0.00,,,0.00,0.0,meteohub,2013-05-13 02:22:00,
2013-05-12 19:27:00,83.1,28.9,30.04,East,81,2.0,9.0,14,0.00,,,0.00,0.0,meteohub,2013-05-13 02:27:00,
2013-05-12 19:32:00,82.8,28.8,30.05,ENE,78,2.0,8.0,14,0.00,,,0.00,0.0,meteohub,2013-05-13 02:32:00,
2013-05-12 19:37:00,82.2,28.2,30.05,ENE,77,1.0,5.0,14,0.00,,,0.00,0.0,meteohub,2013-05-13 02:37:00,
2013-05-12 19:42:00,82.0,28.2,30.05,East,92,2.0,5.0,14,0.00,,,0.00,0.0,meteohub,2013-05-13 02:42:00,
2013-05-12 19:47:00,82.0,29.8,30.05,ESE,105,2.0,5.0,15,0.00,,,0.00,0.0,meteohub,2013-05-13 02:47:00,
2013-05-12 19:52:00,81.9,29.7,30.05,ESE,105,0.0,6.0,15,0.00,,,0.00,0.0,meteohub,2013-05-13 02:52:00,
2013-05-12 19:57:00,81.3,29.3,30.05,ESE,105,0.0,6.0,15,0.00,,,0.00,0.0,meteohub,2013-05-13 02:57:00,
2013-05-12 20:02:00,80.8,28.8,30.05,ESE,105,0.0,4.0,15,0.00,,,0.00,0.0,meteohub,2013-05-13 03:02:00,
2013-05-12 20:07:00,80.2,30.0,30.05,ESE,105,0.0,2.0,16,0.00,,,0.00,0.0,meteohub,2013-05-13 03:07:00,
2013-05-12 20:12:00,79.3,29.3,30.06,ESE,105,0.0,2.0,16,0.00,,,0.00,0.0,meteohub,2013-05-13 03:12:00,
2013-05-12 20:17:00,78.4,28.6,30.06,ESE,105,0.0,1.0,16,0.00,,,0.00,0.0,meteohub,2013-05-13 03:17:00,
2013-05-12 20:22:00,77.7,29.5,30.06,ESE,105,0.0,1.0,17,0.00,,,0.00,0.0,meteohub,2013-05-13 03:22:00,
2013-05-12 20:27:00,76.8,30.0,30.06,ESE,105,0.0,1.0,18,0.00,,,0.00,0.0,meteohub,2013-05-13 03:27:00,
2013-05-12 20:32:00,75.9,29.3,30.06,ESE,105,0.0,1.0,18,0.00,,,0.00,0.0,meteohub,2013-05-13 03:32:00,
2013-05-12 20:37:00,75.4,30.2,30.06,ESE,105,0.0,1.0,19,0.00,,,0.00,0.0,meteohub,2013-05-13 03:37:00,
2013-05-12 20:42:00,74.7,29.7,30.07,ESE,105,0.0,1.0,19,0.00,,,0.00,0.0,meteohub,2013-05-13 03:42:00,
2013-05-12 20:47:00,74.1,30.6,30.07,ESE,105,0.0,1.0,20,0.00,,,0.00,0.0,meteohub,2013-05-13 03:47:00,
2013-05-12 20:52:00,73.6,30.0,30.07,ESE,105,1.0,2.0,20,0.00,,,0.00,0.0,meteohub,2013-05-13 03:52:00,
2013-05-12 20:57:00,73.0,29.7,30.07,ESE,105,1.0,2.0,20,0.00,,,0.00,0.0,meteohub,2013-05-13 03:57:00,
2013-05-12 21:01:00,72.7,29.3,30.07,ESE,105,1.0,2.0,20,0.00,,,0.00,0.0,meteohub,2013-05-13 04:01:00,
2013-05-12 21:06:00,72.1,30.0,30.08,ESE,105,0.0,2.0,21,0.00,,,0.00,0.0,meteohub,2013-05-13 04:06:00,
2013-05-12 21:11:00,71.6,29.7,30.08,ESE,105,1.0,2.0,21,0.00,,,0.00,0.0,meteohub,2013-05-13 04:11:00,
2013-05-12 21:16:00,71.2,29.3,30.08,ESE,105,1.0,1.0,21,0.00,,,0.00,0.0,meteohub,2013-05-13 04:16:00,
2013-05-12 21:21:00,70.7,30.0,30.08,ESE,105,0.0,2.0,22,0.00,,,0.00,0.0,meteohub,2013-05-13 04:21:00,
2013-05-12 21:26:00,70.3,29.7,30.09,ESE,105,0.0,2.0,22,0.00,,,0.00,0.0,meteohub,2013-05-13 04:26:00,
2013-05-12 21:31:00,70.0,29.3,30.09,ESE,105,0.0,2.0,22,0.00,,,0.00,0.0,meteohub,2013-05-13 04:31:00,
2013-05-12 21:36:00,69.6,30.2,30.09,ESE,105,0.0,1.0,23,0.00,,,0.00,0.0,meteohub,2013-05-13 04:36:00,
2013-05-12 21:41:00,69.6,30.2,30.09,ESE,105,0.0,1.0,23,0.00,,,0.00,0.0,meteohub,2013-05-13 04:41:00,
2013-05-12 21:46:00,69.4,30.0,30.09,ESE,105,0.0,1.0,23,0.00,,,0.00,0.0,meteohub,2013-05-13 04:46:00,
2013-05-12 21:52:00,69.6,30.2,30.09,ESE,105,1.0,1.0,23,0.00,,,0.00,0.0,meteohub,2013-05-13 04:52:00,
2013-05-12 21:57:00,69.6,30.2,30.09,ESE,105,0.0,1.0,23,0.00,,,0.00,0.0,meteohub,2013-05-13 04:57:00,
2013-05-12 22:02:00,69.8,30.4,30.09,ESE,105,0.0,1.0,23,0.00,,,0.00,0.0,meteohub,2013-05-13 05:02:00,
2013-05-12 22:07:00,70.0,30.6,30.09,ESE,105,0.0,2.0,23,0.00,,,0.00,0.0,meteohub,2013-05-13 05:07:00,
2013-05-12 22:12:00,70.3,29.7,30.09,ESE,105,0.0,2.0,22,0.00,,,0.00,0.0,meteohub,2013-05-13 05:12:00,
2013-05-12 22:17:00,70.9,30.2,30.09,ESE,105,0.0,2.0,22,0.00,,,0.00,0.0,meteohub,2013-05-13 05:17:00,
2013-05-12 22:22:00,71.1,29.1,30.09,ESE,105,1.0,2.0,21,0.00,,,0.00,0.0,meteohub,2013-05-13 05:22:00,
2013-05-12 22:27:00,71.2,30.4,30.09,ESE,105,0.0,2.0,22,0.00,,,0.00,0.0,meteohub,2013-05-13 05:27:00,
2013-05-12 22:32:00,71.6,29.7,30.10,ESE,105,1.0,2.0,21,0.00,,,0.00,0.0,meteohub,2013-05-13 05:32:00,
2013-05-12 22:37:00,71.8,29.7,30.10,ESE,105,1.0,2.0,21,0.00,,,0.00,0.0,meteohub,2013-05-13 05:37:00,
2013-05-12 22:42:00,72.1,30.0,30.10,ESE,105,1.0,3.0,21,0.00,,,0.00,0.0,meteohub,2013-05-13 05:42:00,
2013-05-12 22:47:00,72.7,29.3,30.10,ESE,105,0.0,3.0,20,0.00,,,0.00,0.0,meteohub,2013-05-13 05:47:00,
2013-05-12 22:52:00,73.0,29.7,30.10,East,84,2.0,3.0,20,0.00,,,0.00,0.0,meteohub,2013-05-13 05:52:00,
2013-05-12 22:57:00,73.8,28.9,30.10,East,82,2.0,8.0,19,0.00,,,0.00,0.0,meteohub,2013-05-13 05:57:00,
2013-05-12 23:02:00,74.5,29.5,30.10,ENE,69,1.0,8.0,19,0.00,,,0.00,0.0,meteohub,2013-05-13 06:02:00,
2013-05-12 23:07:00,74.7,29.7,30.10,ENE,69,0.0,3.0,19,0.00,,,0.00,0.0,meteohub,2013-05-13 06:07:00,
2013-05-12 23:12:00,74.7,29.7,30.10,ENE,69,1.0,3.0,19,0.00,,,0.00,0.0,meteohub,2013-05-13 06:12:00,
2013-05-12 23:17:00,74.3,29.3,30.10,ENE,69,0.0,3.0,19,0.00,,,0.00,0.0,meteohub,2013-05-13 06:17:00,
2013-05-12 23:22:00,74.1,29.3,30.10,ENE,69,1.0,2.0,19,0.00,,,0.00,0.0,meteohub,2013-05-13 06:22:00,
2013-05-12 23:27:00,73.8,28.9,30.10,ENE,69,0.0,2.0,19,0.00,,,0.00,0.0,meteohub,2013-05-13 06:27:00,
2013-05-12 23:32:00,73.2,28.4,30.10,ENE,69,0.0,2.0,19,0.00,,,0.00,0.0,meteohub,2013-05-13 06:32:00,
2013-05-12 23:37:00,72.7,29.3,30.10,ENE,69,0.0,2.0,20,0.00,,,0.00,0.0,meteohub,2013-05-13 06:37:00,
2013-05-12 23:42:00,72.1,28.8,30.11,ENE,69,0.0,2.0,20,0.00,,,0.00,0.0,meteohub,2013-05-13 06:42:00,
2013-05-12 23:47:00,71.6,29.7,30.10,ENE,69,0.0,3.0,21,0.00,,,0.00,0.0,meteohub,2013-05-13 06:47:00,
2013-05-12 23:52:00,71.1,29.1,30.10,ENE,69,0.0,3.0,21,0.00,,,0.00,0.0,meteohub,2013-05-13 06:52:00,
2013-05-12 23:57:00,70.3,28.6,30.10,ENE,69,2.0,2.0,21,0.00,,,0.00,0.0,meteohub,2013-05-13 06:57:00,